Terminal Aerodrome Forecast
Issued by NWS Dodge City, KS

Home | Current Version | Previous Version | Text Only | Print | Product List | Glossary On
Versions: 1 2 3 4 5 6 7 8 9 10 11 12 13 14 15 16 17 18 19 20 21 22 23 24 25 26
000
FTUS43 KDDC 282320
TAFDDC
TAF
KDDC 282320Z 2900/2924 18016G22KT P6SM SCT060
     FM290130 16009KT P6SM SKC
     FM291500 18014KT P6SM SKC
     FM291800 17016G22KT P6SM SKC=

USA.gov is the U.S. government's official web portal to all federal, state and local government web resources and services.